User: anonymous   Login
Location: Colonia Mina de C?rbuni
(46.1667°N, 22.7167°E)
Time: 17:15:07
(UTC+00:00)
Language:

Vanguard 2 - Orbit

View from above orbital plane
View from above orbital plane
View from above satellite
View from above satellite

Ground track
Ground track

The orbit data is extracted from the following two-line orbital elements,

1    11U 59001A   24114.23107461  .00004508  00000-0  23626-2 0  9991
2    11  32.8764 171.4469 1457180 276.6412  67.0934 11.88114726783714
Epoch (UTC): 23 April 2024 05:32:44
Eccentricity: 0.1457180
inclination: 32.8764°
perigee height: 552 km
apogee height: 2916 km
right ascension of ascending node: 171.4469°
argument of perigee: 276.6412°
revolutions per day: 11.88114726
mean anomaly at epoch: 67.0934°
orbit number at epoch: 78371

The dashed part of the orbit path shows where the satellite is in the earth's shadow,  

DLR